Provo, UT

9:56 PM MST on November 19, 2019 (GMT -0700)
Provo Municipal

Weather History for KPVU - September, 2019

Change the Weather History Date:

Monday, September 9, 2019

  Actual Average Record
Temperature  
Mean Temperature 66 °F -  
Max Temperature 81 °F 78 °F 91 °F (2004)
Min Temperature 52 °F 50 °F 35 °F (2001)
Cooling Degree Days 1    
Growing Degree Days 16 (Base 50)    
Moisture  
Dew Point 43 °F    
Average Humidity 50    
Maximum Humidity 86    
Minimum Humidity 20    
Precipitation  
Precipitation 0.00 in - - ()
Sea Level Pressure  
Sea Level Pressure 29.84 in    
Wind  
Wind Speed 4 mph (ESE)    
Max Wind Speed 9 mph    
Max Gust Speed -    
Visibility 10 miles    
Events      
Averages and records for this station are not official NWS values.
T = Trace of Precipitation, MM = Missing Value Source: NWS Daily Summary

Daily Weather History Graph

Daily Weather History Graph

Search for Another Location

Airport or City:

Astronomy

Sep. 09, 2019 Rise Set
Actual Time 7:01 AM MDT 7:45 PM MDT
Civil Twilight 6:34 AM MDT 8:13 PM MDT
Nautical Twilight 6:01 AM MDT 8:45 PM MDT
Astronomical Twilight 5:28 AM MDT 9:19 PM MDT
Moon 5:44 PM MDT (9/9) 2:36 AM MDT (9/9)
Length of Visible Light 13h 38m
Length of Day
12h 43m
Waxing Gibbous, 83% of the Moon is Illuminated
Sep 9
Waxing Gibbous
Sep 13
Full
Sep 21
Last Quarter
Sep 28
New
Oct 5
First Quarter

Hourly Weather History & Observations

Time (MDT) Temp. Dew Point Humidity Pressure Visibility Wind Dir Wind Speed Gust Speed Precip Events Conditions
12:56 AM 61.0 °F 46.9 °F 60% 29.82 in 10.0 mi North 9.2 mph - N/A   Clear
1:56 AM 60.1 °F 46.0 °F 60% 29.84 in 10.0 mi Calm Calm - N/A   Clear
2:56 AM 61.0 °F 48.9 °F 64% 29.85 in 10.0 mi ESE 4.6 mph - N/A   Clear
3:56 AM 55.9 °F 48.9 °F 77% 29.86 in 10.0 mi SE 3.5 mph - N/A   Clear
4:56 AM 55.9 °F 48.9 °F 77% 29.88 in 10.0 mi Calm Calm - N/A   Clear
5:56 AM 54.0 °F 48.9 °F 83% 29.90 in 10.0 mi Calm Calm - N/A   Partly Cloudy
6:56 AM 52.0 °F 48.0 °F 86% 29.92 in 10.0 mi Calm Calm - N/A   Partly Cloudy
7:56 AM 52.0 °F 48.0 °F 86% 29.94 in 10.0 mi East 3.5 mph - N/A   Partly Cloudy
8:25 AM 55.4 °F 48.2 °F 77% 30.04 in 3.0 mi Calm Calm - N/A   Haze
8:56 AM 60.1 °F 48.9 °F 67% 29.93 in 10.0 mi SE 3.5 mph - N/A   Partly Cloudy
9:56 AM 63.0 °F 50.0 °F 63% 29.93 in 10.0 mi WSW 3.5 mph - N/A   Partly Cloudy
11:56 AM 68.0 °F 48.9 °F 50% 29.91 in 10.0 mi WNW 4.6 mph - N/A   Partly Cloudy
12:56 PM 73.0 °F 46.9 °F 39% 29.88 in 10.0 mi Variable 4.6 mph - N/A   Partly Cloudy
1:56 PM 75.9 °F 42.1 °F 30% 29.86 in 10.0 mi Variable 4.6 mph - N/A   Clear
2:56 PM 78.1 °F 39.9 °F 25% 29.82 in 10.0 mi NW 4.6 mph - N/A   Scattered Clouds
3:56 PM 79.0 °F 37.0 °F 22% 29.78 in 10.0 mi Calm Calm - N/A   Scattered Clouds
4:56 PM 80.1 °F 35.1 °F 20% 29.76 in 10.0 mi Variable 4.6 mph - N/A   Clear
5:56 PM 79.0 °F 37.0 °F 22% 29.76 in 10.0 mi Calm Calm - N/A   Scattered Clouds
6:56 PM 78.1 °F 34.0 °F 20% 29.75 in 10.0 mi East 3.5 mph - N/A   Clear
7:56 PM 71.1 °F 37.9 °F 30% 29.74 in 9.0 mi ENE 4.6 mph - N/A   Clear
8:56 PM 66.0 °F 37.9 °F 36% 29.73 in 10.0 mi SSE 6.9 mph - N/A   Clear
9:56 PM 69.1 °F 39.9 °F 35% 29.71 in 10.0 mi East 4.6 mph - N/A   Clear
10:56 PM 66.9 °F 35.1 °F 31% 29.71 in 10.0 mi ESE 6.9 mph - N/A   Clear
11:56 PM 63.0 °F 37.9 °F 40% 29.72 in 10.0 mi ESE 4.6 mph - N/A   Clear